THA232 VTBS-WSSS

Flight info

Callsign THA232
Flight time N/A
Altitude 37000
Route BUT1G BUT Y11 NOMEP/N0477F390 Y11 PASVA Y514 NUFFA DCT PIBAP DCT PASPU
Aircraft B77W/H-SDE1E2E3FGHIJ2J3J4J5M1RWXY/LB1D1

Departure

Time 2026-05-07 13:29
Airport Suvarnabhumi Airport (VTBS)

Arrival

Time N/A
Airport Singapore Changi Airport (WSSS)
Time Latitude Longitude Altitude Speed Heading
2026-05-07 12:57 13.68393 100.74578 15 ft 0 kts 194°
2026-05-07 13:14 13.68405 100.74582 15 ft 2 kts 194°
2026-05-07 13:15 13.68420 100.74586 15 ft 2 kts 194°
2026-05-07 13:15 13.68435 100.74590 15 ft 2 kts 194°
2026-05-07 13:15 13.68446 100.74593 15 ft 0 kts 194°
2026-05-07 13:15 13.68459 100.74595 15 ft 2 kts 175°
2026-05-07 13:16 13.68473 100.74590 15 ft 2 kts 144°
2026-05-07 13:16 13.68480 100.74583 15 ft 2 kts 126°
2026-05-07 13:16 13.68486 100.74572 15 ft 1 kts 103°
2026-05-07 13:16 13.68487 100.74569 15 ft 0 kts 104°
2026-05-07 13:21 13.68482 100.74590 15 ft 5 kts 104°
2026-05-07 13:21 13.68467 100.74648 15 ft 10 kts 104°
2026-05-07 13:22 13.68452 100.74706 15 ft 9 kts 105°
2026-05-07 13:22 13.68431 100.74785 15 ft 13 kts 105°
2026-05-07 13:22 13.68405 100.74886 15 ft 16 kts 105°
2026-05-07 13:22 13.68384 100.74963 15 ft 17 kts 104°
2026-05-07 13:23 13.68342 100.75133 15 ft 17 kts 104°
2026-05-07 13:23 13.68313 100.75253 15 ft 16 kts 105°
2026-05-07 13:23 13.68284 100.75366 15 ft 15 kts 103°
2026-05-07 13:23 13.68259 100.75469 15 ft 12 kts 103°
2026-05-07 13:24 13.68246 100.75545 15 ft 9 kts 84°
2026-05-07 13:24 13.68289 100.75592 15 ft 9 kts 28°
2026-05-07 13:24 13.68320 100.75632 15 ft 6 kts 78°
2026-05-07 13:24 13.68324 100.75663 15 ft 4 kts 80°
2026-05-07 13:25 13.68341 100.75695 15 ft 6 kts 41°
2026-05-07 13:25 13.68397 100.75716 15 ft 10 kts 16°
2026-05-07 13:25 13.68486 100.75741 15 ft 16 kts 16°
2026-05-07 13:25 13.68622 100.75781 15 ft 22 kts 14°
2026-05-07 13:26 13.68771 100.75818 15 ft 21 kts 12°
2026-05-07 13:26 13.68905 100.75853 15 ft 17 kts 15°
2026-05-07 13:26 13.68975 100.75872 15 ft 14 kts 14°
2026-05-07 13:26 13.69105 100.75906 15 ft 14 kts 14°
2026-05-07 13:27 13.69196 100.75935 15 ft 13 kts 32°
2026-05-07 13:27 13.69214 100.76017 15 ft 12 kts 113°
2026-05-07 13:27 13.69159 100.76080 15 ft 11 kts 152°
2026-05-07 13:27 13.69091 100.76081 15 ft 6 kts 193°
2026-05-07 13:28 13.69082 100.76079 15 ft 0 kts 194°
2026-05-07 13:28 13.69082 100.76078 15 ft 0 kts 194°
2026-05-07 13:28 13.68908 100.76034 15 ft 65 kts 194°
2026-05-07 13:29 13.68201 100.75848 15 ft 143 kts 194°
2026-05-07 13:29 13.67092 100.75554 357 ft 178 kts 195°
2026-05-07 13:29 13.66256 100.75308 877 ft 192 kts 192°
2026-05-07 13:29 13.64521 100.74937 2100 ft 198 kts 189°
2026-05-07 13:30 13.63069 100.74838 2726 ft 220 kts 174°
2026-05-07 13:30 13.62018 100.74982 3203 ft 233 kts 169°
2026-05-07 13:30 13.58958 100.75672 4614 ft 264 kts 162°
2026-05-07 13:31 13.56528 100.76403 5612 ft 275 kts 162°
2026-05-07 13:31 13.54659 100.76946 5808 ft 278 kts 162°
2026-05-07 13:31 13.52803 100.77479 5830 ft 277 kts 162°
2026-05-07 13:31 13.50938 100.78011 5834 ft 277 kts 162°
2026-05-07 13:32 13.49055 100.78550 5832 ft 278 kts 162°
2026-05-07 13:32 13.47180 100.79086 5885 ft 293 kts 162°
2026-05-07 13:32 13.45202 100.79654 7010 ft 295 kts 162°
2026-05-07 13:32 13.43274 100.80205 8394 ft 286 kts 162°
2026-05-07 13:33 13.41357 100.80755 9420 ft 290 kts 162°
2026-05-07 13:33 13.39379 100.81303 10334 ft 298 kts 166°
2026-05-07 13:33 13.37280 100.81560 11012 ft 316 kts 176°
2026-05-07 13:33 13.35009 100.81561 11711 ft 332 kts 178°
2026-05-07 13:34 13.32628 100.81541 12389 ft 347 kts 178°
2026-05-07 13:34 13.27585 100.81529 13616 ft 378 kts 178°
2026-05-07 13:34 13.24896 100.81525 14225 ft 393 kts 178°
2026-05-07 13:35 13.22101 100.81521 14992 ft 401 kts 178°
2026-05-07 13:35 13.19312 100.81517 15863 ft 405 kts 178°
2026-05-07 13:35 13.16464 100.81514 16705 ft 410 kts 179°
2026-05-07 13:35 13.13586 100.81511 17495 ft 415 kts 179°
2026-05-07 13:36 13.10683 100.81543 18261 ft 419 kts 175°
2026-05-07 13:36 13.07787 100.81992 19000 ft 422 kts 164°
2026-05-07 13:36 13.04994 100.82948 19682 ft 426 kts 156°
2026-05-07 13:36 13.02235 100.84162 20385 ft 430 kts 155°
2026-05-07 13:37 12.99493 100.85390 21120 ft 433 kts 154°
2026-05-07 13:37 12.96698 100.86642 21793 ft 437 kts 154°
2026-05-07 13:37 12.93924 100.87884 22387 ft 442 kts 154°
2026-05-07 13:37 12.91048 100.89169 22996 ft 447 kts 154°
2026-05-07 13:38 12.88173 100.90454 23595 ft 452 kts 154°
2026-05-07 13:38 12.85263 100.91754 24198 ft 457 kts 154°
2026-05-07 13:38 12.82336 100.93060 24837 ft 461 kts 154°
2026-05-07 13:38 12.79388 100.94376 25464 ft 465 kts 154°
2026-05-07 13:39 12.77269 100.95322 25898 ft 468 kts 154°